M I D A S
Marine Information and Data Acquisition System
Tripno 528 of the Zeeleeuw from 2003-07-01 06:19:53 to 2003-07-01 10:12:15
Back to CruiseResearch ActivitiesStationsMapUnderway DataData graphs

EquipmentUnitsComments
TimeDGPSUTC
LatitudeDGPSDM.mWGS84
LongitudeDGPSDM.mWGS84
SpeedMeteo Stationm/sRelative wind speed
DirectionMeteo StationdegRelative wind direction
TemperatureMeteo Stationdeg CelciusAir temperature
PressureMeteo StationPaAtmospheric pressure
HumidityMeteo Station%Relative humidity
Missing or incorrect values are displayed as -999
Metereological data collected by the RV Zeeleeuw from 2003-07-01 06:19:53 to 2003-07-01 10:12:15
                                                                                    Next 1000 lines
Time Latitude Longitude Speed Direction Temperature Pressure Humidity
2003-07-01 06:20:01 51°13.6 2°56.1 4.9 96 15.3 99970 82
2003-07-01 06:20:07 51°13.6 2°56.1 5 79 15.3 99970 82
2003-07-01 06:20:11 51°13.6 2°56.1 4.3 103 15.3 99970 82
2003-07-01 06:20:17 51°13.6 2°56.1 2.5 117 15.3 99970 82
2003-07-01 06:20:21 51°13.6 2°56.1 2.7 95 15.3 99970 82
2003-07-01 06:20:27 51°13.6 2°56.1 3.2 95 15.3 99970 82
2003-07-01 06:20:33 51°13.6 2°56.1 2.3 127 15.3 99970 82
2003-07-01 06:20:37 51°13.6 2°56.1 3.9 84 15.3 99970 82
2003-07-01 06:20:41 51°13.6 2°56.1 5.1 101 15.3 99970 82
2003-07-01 06:20:47 51°13.6 2°56.1 5.1 84 15.3 99970 82
2003-07-01 06:20:53 51°13.6 2°56.1 4.6 82 15.3 99970 82
2003-07-01 06:20:57 51°13.6 2°56.1 6.1 52 15.3 99970 82
2003-07-01 06:21:01 51°13.6 2°56.1 5.6 55 15.3 99970 82
2003-07-01 06:21:07 51°13.6 2°56.1 4 78 15.3 99970 82
2003-07-01 06:21:13 51°13.6 2°56.1 4.5 86 15.3 99970 82
2003-07-01 06:21:17 51°13.6 2°56.1 2.6 81 15.3 99970 82
2003-07-01 06:21:21 51°13.6 2°56.1 3 109 15.3 99970 82
2003-07-01 06:21:27 51°13.6 2°56.1 3.1 111 15.3 99970 82
2003-07-01 06:21:31 51°13.6 2°56.1 3.9 68 15.3 99970 82
2003-07-01 06:21:37 51°13.6 2°56.1 4.2 69 15.3 99970 82
2003-07-01 06:21:41 51°13.6 2°56.1 2.6 63 15.3 99970 82
2003-07-01 06:21:47 51°13.6 2°56.1 3.2 79 15.3 99970 82
2003-07-01 06:21:53 51°13.6 2°56.1 3.2 97 15.3 99970 82
2003-07-01 06:21:57 51°13.6 2°56.1 2.8 75 15.3 99970 82
2003-07-01 06:22:01 51°13.6 2°56.1 3.7 103 15.3 99970 82
2003-07-01 06:22:07 51°13.6 2°56.1 3.7 89 15.3 99970 82
2003-07-01 06:22:11 51°13.6 2°56.1 4 74 15.3 99970 82
2003-07-01 06:22:17 51°13.6 2°56.1 3.3 110 15.3 99970 82
2003-07-01 06:22:21 51°13.6 2°56.1 3.3 99 15.3 99970 82
2003-07-01 06:22:27 51°13.6 2°56.1 2.9 139 15.3 99970 82
2003-07-01 06:22:31 51°13.6 2°56.1 1.7 113 15.3 99970 82
2003-07-01 06:22:37 51°13.6 2°56.1 2.7 115 15.3 99970 82
2003-07-01 06:22:41 51°13.6 2°56.1 1.7 106 15.3 99970 82
2003-07-01 06:22:47 51°13.6 2°56.1 2.2 95 15.3 99970 82
2003-07-01 06:22:53 51°13.6 2°56.1 2.8 114 15.4 99970 82
2003-07-01 06:22:57 51°13.6 2°56.1 3 156 15.4 99970 82
2003-07-01 06:23:01 51°13.6 2°56.1 4.2 138 15.4 99970 82
2003-07-01 06:23:07 51°13.6 2°56.09 4.1 107 15.4 99970 82
2003-07-01 06:23:13 51°13.61 2°56.09 2.4 111 15.4 99980 82
2003-07-01 06:23:19 51°13.61 2°56.08 3.1 112 15.4 99980 82
2003-07-01 06:23:23 51°13.61 2°56.08 2.8 121 15.4 99980 82
2003-07-01 06:23:29 51°13.61 2°56.07 4 66 15.4 99980 82
2003-07-01 06:23:35 51°13.61 2°56.06 2.7 104 15.4 99970 82
2003-07-01 06:23:39 51°13.61 2°56.06 3.7 107 15.4 99970 82
2003-07-01 06:23:45 51°13.62 2°56.05 5.5 119 15.5 99970 82
2003-07-01 06:23:49 51°13.62 2°56.04 5.3 102 15.5 99970 82
2003-07-01 06:23:55 51°13.62 2°56.03 4.5 119 15.4 99970 82
2003-07-01 06:24:01 51°13.62 2°56.02 3.9 102 15.4 99970 82
2003-07-01 06:24:05 51°13.62 2°56.02 4.4 122 15.4 99970 82
2003-07-01 06:24:11 51°13.63 2°56.01 4.1 123 15.4 99970 82
2003-07-01 06:24:17 51°13.63 2°55.99 3.9 147 15.5 99970 82
2003-07-01 06:24:21 51°13.63 2°55.99 3.8 150 15.5 99970 82
2003-07-01 06:24:27 51°13.63 2°55.98 4 132 15.5 99970 82
2003-07-01 06:24:31 51°13.64 2°55.97 3.2 134 15.5 99970 82
2003-07-01 06:24:37 51°13.64 2°55.96 2.5 187 15.5 99970 82
2003-07-01 06:24:41 51°13.64 2°55.95 2.5 165 15.5 99970 82
2003-07-01 06:24:47 51°13.64 2°55.94 2.3 156 15.5 99970 82
2003-07-01 06:24:51 51°13.64 2°55.93 2.6 174 15.5 99970 82
2003-07-01 06:24:57 51°13.65 2°55.92 2.7 163 15.5 99970 82
2003-07-01 06:25:01 51°13.65 2°55.91 2.6 159 15.5 99970 82
2003-07-01 06:25:07 51°13.65 2°55.9 5.3 176 15.5 99980 82
2003-07-01 06:25:11 51°13.65 2°55.9 3.7 160 15.5 99980 82
2003-07-01 06:25:17 51°13.66 2°55.88 4.2 136 15.5 99970 82
2003-07-01 06:25:21 51°13.66 2°55.88 4.5 137 15.5 99970 82
2003-07-01 06:25:27 51°13.66 2°55.87 5.5 147 15.5 99970 82
2003-07-01 06:25:31 51°13.66 2°55.86 6.5 151 15.5 99970 82
2003-07-01 06:25:37 51°13.67 2°55.85 6.9 137 15.5 99970 82
2003-07-01 06:25:41 51°13.67 2°55.84 6.9 139 15.5 99970 82
2003-07-01 06:25:47 51°13.67 2°55.83 6.2 138 15.5 99970 82
2003-07-01 06:25:51 51°13.67 2°55.82 6.9 138 15.5 99970 82
2003-07-01 06:25:57 51°13.68 2°55.81 6.6 143 15.5 99970 82
2003-07-01 06:26:01 51°13.68 2°55.81 7.3 144 15.5 99970 82
2003-07-01 06:26:05 51°13.68 2°55.8 7.8 143 15.5 99970 81
2003-07-01 06:26:09 51°13.68 2°55.8 6.7 122 15.5 99970 81
2003-07-01 06:26:13 51°13.68 2°55.79 7.6 143 15.5 99970 81
2003-07-01 06:26:19 51°13.68 2°55.78 5.7 145 15.5 99970 81
2003-07-01 06:26:23 51°13.68 2°55.78 6.2 151 15.5 99970 82
2003-07-01 06:26:27 51°13.68 2°55.77 5.7 165 15.5 99970 82
2003-07-01 06:26:33 51°13.68 2°55.77 2.8 157 15.5 99970 81
2003-07-01 06:26:37 51°13.68 2°55.77 5.3 149 15.5 99970 81
2003-07-01 06:26:41 51°13.68 2°55.76 5.2 143 15.4 99970 81
2003-07-01 06:26:47 51°13.68 2°55.76 4.9 156 15.4 99970 81
2003-07-01 06:26:53 51°13.68 2°55.76 5.3 157 15.4 99980 81
2003-07-01 06:26:57 51°13.68 2°55.76 5 160 15.4 99980 81
2003-07-01 06:27:01 51°13.69 2°55.76 3.6 172 15.4 99970 81
2003-07-01 06:27:07 51°13.69 2°55.75 4.3 156 15.4 99970 81
2003-07-01 06:27:13 51°13.69 2°55.75 3.2 163 15.4 99970 81
2003-07-01 06:27:17 51°13.69 2°55.75 4.2 170 15.4 99970 81
2003-07-01 06:27:21 51°13.69 2°55.75 2.8 191 15.4 99970 81
2003-07-01 06:27:27 51°13.69 2°55.75 3.5 209 15.4 99970 81
2003-07-01 06:27:33 51°13.69 2°55.75 2.5 209 15.4 99970 81
2003-07-01 06:27:37 51°13.69 2°55.76 2.4 182 15.4 99970 81
2003-07-01 06:27:41 51°13.69 2°55.76 1.9 199 15.4 99970 81
2003-07-01 06:27:47 51°13.7 2°55.76 2.8 188 15.4 99970 81
2003-07-01 06:27:53 51°13.7 2°55.76 2.1 204 15.4 99970 81
2003-07-01 06:27:57 51°13.7 2°55.76 2.4 209 15.4 99970 81
2003-07-01 06:28:01 51°13.7 2°55.76 3.2 216 15.4 99970 81
2003-07-01 06:28:07 51°13.71 2°55.76 1.9 192 15.4 99970 81
2003-07-01 06:28:13 51°13.71 2°55.76 1.9 229 15.4 99980 81
2003-07-01 06:28:17 51°13.72 2°55.76 2.2 223 15.4 99980 81
2003-07-01 06:28:21 51°13.72 2°55.76 1.9 241 15.4 99970 81
2003-07-01 06:28:27 51°13.72 2°55.75 1.8 245 15.4 99970 81
2003-07-01 06:28:33 51°13.73 2°55.75 2.7 240 15.4 99970 82
2003-07-01 06:28:37 51°13.73 2°55.74 1.7 281 15.4 99970 82
2003-07-01 06:28:41 51°13.74 2°55.74 2.7 304 15.4 99970 82
2003-07-01 06:28:47 51°13.74 2°55.73 1.8 236 15.4 99970 82
2003-07-01 06:28:53 51°13.75 2°55.72 1.6 296 15.5 99970 82
2003-07-01 06:28:57 51°13.75 2°55.72 1 292 15.5 99970 82
2003-07-01 06:29:01 51°13.76 2°55.71 0.5 297 15.4 99970 82
2003-07-01 06:29:07 51°13.76 2°55.7 1.7 330 15.4 99970 82
2003-07-01 06:29:13 51°13.77 2°55.69 1.8 327 15.5 99970 82
2003-07-01 06:29:17 51°13.78 2°55.69 2 330 15.5 99970 82
2003-07-01 06:29:21 51°13.78 2°55.68 1.8 334 15.5 99970 82
2003-07-01 06:29:27 51°13.79 2°55.67 1.9 323 15.5 99970 82
2003-07-01 06:29:31 51°13.8 2°55.66 2.4 331 15.5 99970 82
2003-07-01 06:29:37 51°13.81 2°55.65 1.9 333 15.5 99970 82
2003-07-01 06:29:41 51°13.82 2°55.65 2.7 41 15.5 99970 82
2003-07-01 06:29:47 51°13.83 2°55.64 1.8 299 15.5 99970 82
2003-07-01 06:29:53 51°13.84 2°55.63 2.7 301 15.6 99970 82
2003-07-01 06:29:57 51°13.84 2°55.62 3.8 268 15.6 99970 82
2003-07-01 06:30:01 51°13.85 2°55.62 2.9 40 15.6 99970 82
2003-07-01 06:30:07 51°13.86 2°55.61 2.8 2 15.6 99970 82
2003-07-01 06:30:13 51°13.88 2°55.6 2.4 322 15.6 99970 82
2003-07-01 06:30:17 51°13.88 2°55.59 1.9 342 15.6 99970 82
2003-07-01 06:30:21 51°13.89 2°55.59 2.4 7 15.6 99970 82
2003-07-01 06:30:27 51°13.9 2°55.58 2.6 5 15.6 99970 82
2003-07-01 06:30:33 51°13.92 2°55.57 2.6 347 15.6 99970 82
2003-07-01 06:30:37 51°13.92 2°55.56 3.6 344 15.6 99970 82
2003-07-01 06:30:41 51°13.93 2°55.56 3.3 351 15.6 99970 82
2003-07-01 06:30:47 51°13.94 2°55.55 2.2 350 15.6 99970 82
2003-07-01 06:30:51 51°13.95 2°55.54 1.7 342 15.7 99970 82
2003-07-01 06:30:57 51°13.97 2°55.53 2.1 337 15.7 99970 82
2003-07-01 06:31:01 51°13.97 2°55.53 2 342 15.7 99970 82
2003-07-01 06:31:07 51°13.99 2°55.52 2.5 320 15.7 99970 82
2003-07-01 06:31:11 51°13.99 2°55.51 2 304 15.7 99970 82
2003-07-01 06:31:17 51°14.01 2°55.5 2.1 41 15.7 99970 82
2003-07-01 06:31:21 51°14.02 2°55.5 2.1 335 15.7 99970 82
2003-07-01 06:31:27 51°14.03 2°55.49 2.9 333 15.7 99970 82
2003-07-01 06:31:33 51°14.04 2°55.48 3.3 329 15.7 99970 81
2003-07-01 06:31:37 51°14.05 2°55.47 7 229 15.7 99970 81
2003-07-01 06:31:41 51°14.06 2°55.47 5.7 308 15.7 99970 81
2003-07-01 06:31:47 51°14.07 2°55.46 5.3 294 15.7 99970 81
2003-07-01 06:31:51 51°14.08 2°55.45 5 285 15.7 99970 81
2003-07-01 06:31:57 51°14.09 2°55.44 3.7 303 15.7 99970 81
2003-07-01 06:32:01 51°14.1 2°55.44 4.7 307 15.7 99980 81
2003-07-01 06:32:07 51°14.11 2°55.43 2.6 32 15.7 99980 81
2003-07-01 06:32:13 51°14.12 2°55.42 3.7 339 15.7 99970 81
2003-07-01 06:32:17 51°14.13 2°55.41 4.7 310 15.7 99970 81
2003-07-01 06:32:21 51°14.14 2°55.4 3.6 330 15.7 99970 81
2003-07-01 06:32:27 51°14.15 2°55.39 4 296 15.7 99970 81
2003-07-01 06:32:31 51°14.16 2°55.39 4 306 15.7 99970 81
2003-07-01 06:32:37 51°14.17 2°55.37 3.3 313 15.7 99970 81
2003-07-01 06:32:41 51°14.18 2°55.37 3.3 302 15.7 99970 81
2003-07-01 06:32:47 51°14.19 2°55.35 3.2 291 15.7 99970 81
2003-07-01 06:32:53 51°14.2 2°55.34 3.5 322 15.7 99970 81
2003-07-01 06:32:57 51°14.21 2°55.33 3.1 291 15.7 99970 81
2003-07-01 06:33:01 51°14.22 2°55.32 6.5 323 15.7 99970 81
2003-07-01 06:33:07 51°14.23 2°55.31 3.8 326 15.7 99970 81
2003-07-01 06:33:13 51°14.24 2°55.29 5.3 337 15.7 99980 81
2003-07-01 06:33:17 51°14.25 2°55.28 4 324 15.7 99980 81
2003-07-01 06:33:21 51°14.25 2°55.27 4.5 330 15.7 99970 80
2003-07-01 06:33:27 51°14.26 2°55.25 6.5 322 15.7 99970 80
2003-07-01 06:33:33 51°14.28 2°55.23 6.8 323 15.7 99970 80
2003-07-01 06:33:37 51°14.28 2°55.22 6.1 42 15.7 99970 80
2003-07-01 06:33:41 51°14.29 2°55.2 6.9 327 15.7 99970 80
2003-07-01 06:33:47 51°14.3 2°55.18 6.9 319 15.7 99970 80
2003-07-01 06:33:53 51°14.31 2°55.16 6.5 320 15.7 99970 81
2003-07-01 06:33:57 51°14.32 2°55.15 4.8 328 15.7 99970 81
2003-07-01 06:34:01 51°14.33 2°55.14 7.3 336 15.7 99970 81
2003-07-01 06:34:07 51°14.34 2°55.12 4.8 340 15.7 99970 81
2003-07-01 06:34:13 51°14.35 2°55.1 6.1 321 15.7 99960 81
2003-07-01 06:34:17 51°14.35 2°55.08 6.8 326 15.7 99960 81
2003-07-01 06:34:21 51°14.36 2°55.07 8.6 228 15.8 99970 81
2003-07-01 06:34:27 51°14.37 2°55.05 9.5 310 15.8 99970 81
2003-07-01 06:34:33 51°14.38 2°55.03 8.3 304 15.8 99960 81
2003-07-01 06:34:37 51°14.39 2°55.02 7.2 292 15.8 99960 81
2003-07-01 06:34:41 51°14.4 2°55 6.9 303 15.8 99960 81
2003-07-01 06:34:47 51°14.41 2°54.98 8.2 307 15.8 99960 81
2003-07-01 06:34:53 51°14.41 2°54.96 7 301 15.8 99960 80
2003-07-01 06:34:57 51°14.42 2°54.95 7.1 314 15.8 99960 80
2003-07-01 06:35:01 51°14.42 2°54.93 7.8 314 15.8 99960 80
2003-07-01 06:35:07 51°14.43 2°54.91 8 315 15.8 99960 80
2003-07-01 06:35:13 51°14.43 2°54.89 7.8 317 15.8 99960 80
2003-07-01 06:35:17 51°14.43 2°54.87 8.8 318 15.8 99960 80
2003-07-01 06:35:21 51°14.44 2°54.86 7.6 320 15.8 99960 81
2003-07-01 06:35:27 51°14.44 2°54.83 7.6 323 15.8 99960 81
2003-07-01 06:35:33 51°14.44 2°54.81 8.7 321 15.8 99960 81
2003-07-01 06:35:37 51°14.44 2°54.79 9.1 320 15.8 99960 81
2003-07-01 06:35:41 51°14.44 2°54.78 9.1 319 15.8 99960 81
2003-07-01 06:35:47 51°14.45 2°54.75 9.1 320 15.8 99960 81
2003-07-01 06:35:53 51°14.45 2°54.73 8.8 322 15.8 99960 81
2003-07-01 06:35:57 51°14.45 2°54.71 9.3 325 15.8 99960 81
2003-07-01 06:36:01 51°14.45 2°54.7 10.6 328 15.8 99950 81
2003-07-01 06:36:07 51°14.45 2°54.67 9.3 326 15.8 99950 81
2003-07-01 06:36:13 51°14.45 2°54.65 9.3 325 15.8 99950 81
2003-07-01 06:36:17 51°14.45 2°54.63 8.8 330 15.8 99950 81
2003-07-01 06:36:21 51°14.45 2°54.62 11 327 15.8 99950 81
2003-07-01 06:36:27 51°14.45 2°54.59 9.2 326 15.8 99950 81
2003-07-01 06:36:33 51°14.45 2°54.57 9.6 332 15.8 99940 81
2003-07-01 06:36:37 51°14.45 2°54.55 10 338 15.8 99940 81
2003-07-01 06:36:41 51°14.45 2°54.53 8.5 329 15.9 99950 81
2003-07-01 06:36:47 51°14.45 2°54.51 9.8 340 15.9 99950 81
2003-07-01 06:36:53 51°14.44 2°54.49 9.6 330 15.8 99940 81
2003-07-01 06:36:57 51°14.44 2°54.48 8.7 332 15.8 99940 81
2003-07-01 06:37:01 51°14.44 2°54.46 9.6 333 15.8 99950 81
2003-07-01 06:37:07 51°14.44 2°54.44 10.9 328 15.8 99950 81
2003-07-01 06:37:13 51°14.44 2°54.43 11 330 15.9 99950 81
2003-07-01 06:37:17 51°14.43 2°54.42 9.2 328 15.9 99950 81
2003-07-01 06:37:21 51°14.43 2°54.41 9.5 331 15.9 99950 81
2003-07-01 06:37:27 51°14.43 2°54.39 9.2 325 15.9 99950 81
2003-07-01 06:37:33 51°14.43 2°54.38 9.3 333 15.9 99950 81
2003-07-01 06:37:37 51°14.42 2°54.37 8.8 328 15.9 99950 81
2003-07-01 06:37:41 51°14.42 2°54.36 9.7 327 15.9 99950 81
2003-07-01 06:37:47 51°14.42 2°54.35 9 333 15.9 99950 81
2003-07-01 06:37:53 51°14.42 2°54.35 8.3 340 15.9 99950 81
2003-07-01 06:37:57 51°14.42 2°54.34 7.8 346 15.9 99950 81
2003-07-01 06:38:01 51°14.41 2°54.34 7.6 348 15.9 99950 81
2003-07-01 06:38:07 51°14.41 2°54.34 7.1 346 15.9 99950 81
2003-07-01 06:38:13 51°14.41 2°54.33 6.8 345 15.9 99960 81
2003-07-01 06:38:17 51°14.41 2°54.33 6.8 356 15.9 99960 81
2003-07-01 06:38:21 51°14.41 2°54.32 7 356 15.8 99960 80
2003-07-01 06:38:27 51°14.41 2°54.32 7.3 354 15.8 99960 80
2003-07-01 06:38:33 51°14.41 2°54.32 7 354 15.8 99960 80
2003-07-01 06:38:37 51°14.4 2°54.31 7.3 359 15.8 99960 80
2003-07-01 06:38:41 51°14.4 2°54.31 7.6 3 15.8 99960 80
2003-07-01 06:38:47 51°14.4 2°54.31 6.3 2 15.8 99960 80
2003-07-01 06:38:53 51°14.4 2°54.3 6.2 4 15.8 99960 80
2003-07-01 06:38:57 51°14.4 2°54.3 6.1 5 15.8 99960 80
2003-07-01 06:39:01 51°14.4 2°54.3 6.7 8 15.7 99960 80
2003-07-01 06:39:07 51°14.4 2°54.3 6.1 12 15.7 99960 80
2003-07-01 06:39:13 51°14.4 2°54.29 6.5 12 15.7 99960 80
2003-07-01 06:39:17 51°14.4 2°54.29 6 21 15.7 99960 80
2003-07-01 06:39:21 51°14.39 2°54.29 5.9 20 15.7 99960 80
2003-07-01 06:39:27 51°14.39 2°54.29 6.6 16 15.7 99960 80
2003-07-01 06:39:33 51°14.39 2°54.28 6.4 19 15.7 99960 80
2003-07-01 06:39:37 51°14.39 2°54.28 5.9 29 15.7 99960 80
2003-07-01 06:39:41 51°14.39 2°54.28 5.7 30 15.7 99960 80
2003-07-01 06:39:47 51°14.39 2°54.28 5.9 25 15.7 99960 80
2003-07-01 06:39:53 51°14.39 2°54.28 7.2 28 15.7 99970 81
2003-07-01 06:39:57 51°14.39 2°54.27 8.1 26 15.7 99970 81
2003-07-01 06:40:01 51°14.39 2°54.27 7.9 26 15.7 99960 81
2003-07-01 06:40:07 51°14.38 2°54.27 7.9 25 15.7 99960 81
2003-07-01 06:40:13 51°14.38 2°54.27 7.9 30 15.7 99960 81
2003-07-01 06:40:17 51°14.38 2°54.27 7.9 36 15.7 99960 81
2003-07-01 06:40:21 51°14.38 2°54.27 7.8 41 15.7 99960 81
2003-07-01 06:40:27 51°14.38 2°54.26 7.3 61 15.7 99960 81
2003-07-01 06:40:33 51°14.38 2°54.26 7 60 15.7 99950 81
2003-07-01 06:40:37 51°14.38 2°54.26 6.8 51 15.7 99950 81
2003-07-01 06:40:41 51°14.38 2°54.26 6.3 50 15.7 99950 82
2003-07-01 06:40:47 51°14.38 2°54.26 6.4 56 15.7 99950 82
2003-07-01 06:40:53 51°14.38 2°54.26 6 59 15.7 99950 82
2003-07-01 06:40:57 51°14.38 2°54.25 6.9 62 15.7 99950 82
2003-07-01 06:41:01 51°14.37 2°54.25 7.3 46 15.7 99960 81
2003-07-01 06:41:07 51°14.37 2°54.25 7.4 39 15.7 99960 81
2003-07-01 06:41:13 51°14.37 2°54.25 7.7 31 15.7 99960 82
2003-07-01 06:41:17 51°14.37 2°54.25 8.4 23 15.7 99960 82
2003-07-01 06:41:21 51°14.36 2°54.25 9 24 15.7 99960 82
2003-07-01 06:41:27 51°14.36 2°54.25 8.6 18 15.7 99960 82
2003-07-01 06:41:33 51°14.35 2°54.24 9.4 14 15.7 99960 82
2003-07-01 06:41:37 51°14.35 2°54.24 9.5 7 15.7 99960 82
2003-07-01 06:41:41 51°14.34 2°54.24 10 2 15.7 99950 82
2003-07-01 06:41:47 51°14.34 2°54.23 10.1 355 15.7 99950 82
2003-07-01 06:41:51 51°14.33 2°54.23 9.5 351 15.6 99950 82
2003-07-01 06:41:57 51°14.33 2°54.22 8.7 348 15.6 99950 82
2003-07-01 06:42:01 51°14.32 2°54.21 9.1 346 15.6 99960 82
2003-07-01 06:42:07 51°14.32 2°54.2 9.2 351 15.6 99960 82
2003-07-01 06:42:13 51°14.31 2°54.18 9.1 340 15.6 99950 82
2003-07-01 06:42:17 51°14.31 2°54.17 9.3 351 15.6 99950 82
2003-07-01 06:42:21 51°14.31 2°54.16 9.6 343 15.6 99950 82
2003-07-01 06:42:27 51°14.3 2°54.15 11.1 343 15.6 99950 82
2003-07-01 06:42:33 51°14.3 2°54.13 10.4 344 15.6 99950 82
2003-07-01 06:42:37 51°14.29 2°54.12 9.8 339 15.6 99950 82
2003-07-01 06:42:41 51°14.29 2°54.11 10.1 345 15.6 99950 82
2003-07-01 06:42:47 51°14.28 2°54.09 9.5 343 15.6 99950 82
2003-07-01 06:42:53 51°14.28 2°54.07 9.2 342 15.7 99940 83
2003-07-01 06:42:57 51°14.27 2°54.05 9.5 342 15.7 99940 83
2003-07-01 06:43:01 51°14.27 2°54.04 10.2 343 15.7 99940 82
2003-07-01 06:43:07 51°14.26 2°54.02 11.7 344 15.7 99940 82
2003-07-01 06:43:13 51°14.25 2°54 11.6 346 15.6 99940 82
2003-07-01 06:43:17 51°14.25 2°53.98 11 352 15.6 99940 82
2003-07-01 06:43:21 51°14.24 2°53.96 12.7 352 15.6 99940 82
2003-07-01 06:43:27 51°14.24 2°53.94 12.1 351 15.6 99940 82
2003-07-01 06:43:33 51°14.23 2°53.91 11.8 350 15.6 99940 82
2003-07-01 06:43:37 51°14.22 2°53.89 12.4 349 15.6 99940 82
2003-07-01 06:43:41 51°14.21 2°53.87 13.4 343 15.6 99930 82
2003-07-01 06:43:47 51°14.2 2°53.84 12.2 347 15.6 99930 82
2003-07-01 06:43:53 51°14.19 2°53.82 11.1 346 15.7 99930 82
2003-07-01 06:43:57 51°14.19 2°53.8 11.5 347 15.7 99930 82
2003-07-01 06:44:01 51°14.18 2°53.78 11.8 348 15.7 99930 82
2003-07-01 06:44:07 51°14.17 2°53.75 12.5 349 15.7 99930 82
2003-07-01 06:44:13 51°14.16 2°53.72 12.3 344 15.6 99930 82
2003-07-01 06:44:17 51°14.15 2°53.7 12.3 346 15.6 99930 82
2003-07-01 06:44:21 51°14.14 2°53.68 13.1 341 15.6 99930 82
2003-07-01 06:44:27 51°14.13 2°53.65 12.7 344 15.6 99930 82
2003-07-01 06:44:33 51°14.12 2°53.62 14 345 15.6 99930 82
2003-07-01 06:44:37 51°14.11 2°53.6 13.5 349 15.6 99930 82
2003-07-01 06:44:41 51°14.11 2°53.58 14.2 347 15.6 99930 82
2003-07-01 06:44:47 51°14.1 2°53.55 13.2 348 15.6 99930 82
2003-07-01 06:44:53 51°14.09 2°53.52 13.8 346 15.6 99920 82
2003-07-01 06:44:57 51°14.08 2°53.5 15 346 15.6 99920 82
2003-07-01 06:45:01 51°14.07 2°53.48 12 348 15.6 99920 82
2003-07-01 06:45:07 51°14.06 2°53.45 12.8 350 15.6 99920 82
2003-07-01 06:45:13 51°14.05 2°53.42 12.5 354 15.6 99920 82
2003-07-01 06:45:17 51°14.04 2°53.4 14.4 350 15.6 99920 82
2003-07-01 06:45:21 51°14.03 2°53.38 13.4 344 15.6 99930 82
2003-07-01 06:45:27 51°14.02 2°53.35 14 342 15.6 99930 82
2003-07-01 06:45:33 51°14.01 2°53.32 13.1 341 15.6 99930 82
2003-07-01 06:45:37 51°14.01 2°53.3 14.1 347 15.6 99930 82
2003-07-01 06:45:41 51°14 2°53.28 13.4 337 15.6 99930 82
2003-07-01 06:45:47 51°13.99 2°53.25 12.4 345 15.6 99930 82
2003-07-01 06:45:53 51°13.98 2°53.22 12.5 343 15.6 99920 82
2003-07-01 06:45:57 51°13.97 2°53.2 12.8 342 15.6 99920 82
2003-07-01 06:46:01 51°13.96 2°53.18 13.2 345 15.7 99920 82
2003-07-01 06:46:07 51°13.95 2°53.15 13.3 345 15.7 99920 82
2003-07-01 06:46:13 51°13.94 2°53.12 12.7 347 15.7 99930 83
2003-07-01 06:46:17 51°13.93 2°53.1 14.6 348 15.7 99930 83
2003-07-01 06:46:21 51°13.93 2°53.08 12.9 346 15.7 99930 82
2003-07-01 06:46:27 51°13.91 2°53.05 12.3 348 15.7 99930 82
2003-07-01 06:46:33 51°13.9 2°53.02 13 345 15.7 99920 82
2003-07-01 06:46:37 51°13.9 2°53 14 347 15.7 99920 82
2003-07-01 06:46:41 51°13.89 2°52.98 13 347 15.7 99920 82
2003-07-01 06:46:47 51°13.88 2°52.95 12.9 347 15.7 99920 82
2003-07-01 06:46:51 51°13.87 2°52.93 12.4 340 15.6 99920 82
2003-07-01 06:46:57 51°13.86 2°52.9 12.8 341 15.6 99920 82
2003-07-01 06:47:01 51°13.85 2°52.88 12.1 350 15.6 99930 82
2003-07-01 06:47:07 51°13.84 2°52.84 14.2 346 15.6 99930 82
2003-07-01 06:47:13 51°13.83 2°52.81 12.8 343 15.6 99930 82
2003-07-01 06:47:17 51°13.82 2°52.79 13.8 346 15.6 99930 82
2003-07-01 06:47:21 51°13.82 2°52.77 14 341 15.7 99930 82
2003-07-01 06:47:27 51°13.81 2°52.74 13.8 347 15.7 99930 82
2003-07-01 06:47:33 51°13.79 2°52.71 14.6 346 15.7 99930 83
2003-07-01 06:47:37 51°13.79 2°52.69 13.1 344 15.7 99930 83
2003-07-01 06:47:41 51°13.78 2°52.67 13.8 339 15.7 99920 82
2003-07-01 06:47:47 51°13.77 2°52.64 12.3 338 15.7 99920 82
2003-07-01 06:47:53 51°13.76 2°52.61 13.3 344 15.7 99920 82
2003-07-01 06:47:57 51°13.75 2°52.59 12.1 347 15.7 99920 82
2003-07-01 06:48:01 51°13.74 2°52.57 13.1 347 15.7 99910 82
2003-07-01 06:48:07 51°13.73 2°52.54 12.5 349 15.7 99910 82
2003-07-01 06:48:13 51°13.72 2°52.51 13.1 347 15.7 99910 82
2003-07-01 06:48:17 51°13.72 2°52.49 12.5 347 15.7 99910 82
2003-07-01 06:48:21 51°13.71 2°52.47 12 350 15.7 99920 82
2003-07-01 06:48:27 51°13.7 2°52.44 13.7 345 15.7 99920 82
2003-07-01 06:48:33 51°13.69 2°52.41 14.8 344 15.7 99920 82
2003-07-01 06:48:37 51°13.68 2°52.39 14.4 344 15.7 99920 82
2003-07-01 06:48:41 51°13.67 2°52.37 14.4 345 15.7 99920 82
2003-07-01 06:48:47 51°13.66 2°52.34 13.8 345 15.7 99920 82
2003-07-01 06:48:53 51°13.65 2°52.31 13.3 343 15.7 99930 82
2003-07-01 06:48:57 51°13.64 2°52.29 13.3 348 15.7 99930 82
2003-07-01 06:49:01 51°13.64 2°52.27 13 349 15.7 99920 82
2003-07-01 06:49:07 51°13.63 2°52.24 13.5 352 15.7 99920 82
2003-07-01 06:49:13 51°13.62 2°52.21 14.8 356 15.7 99910 82
2003-07-01 06:49:17 51°13.61 2°52.19 14.6 350 15.7 99910 82
2003-07-01 06:49:21 51°13.6 2°52.17 13.3 341 15.7 99910 82
2003-07-01 06:49:27 51°13.59 2°52.14 12.7 349 15.7 99910 82
2003-07-01 06:49:33 51°13.58 2°52.11 14.1 346 15.7 99920 82
2003-07-01 06:49:37 51°13.57 2°52.09 13.6 347 15.7 99920 82
2003-07-01 06:49:41 51°13.57 2°52.06 13.6 347 15.8 99910 82
2003-07-01 06:49:47 51°13.56 2°52.03 13.1 347 15.8 99910 82
2003-07-01 06:49:53 51°13.54 2°52 14.5 345 15.8 99920 82
2003-07-01 06:49:57 51°13.54 2°51.98 13.3 344 15.8 99920 82
2003-07-01 06:50:01 51°13.53 2°51.96 13.8 351 15.8 99910 82
2003-07-01 06:50:07 51°13.52 2°51.93 14.6 351 15.8 99910 82
2003-07-01 06:50:13 51°13.51 2°51.9 13.8 350 15.8 99910 82
2003-07-01 06:50:17 51°13.5 2°51.88 13.4 350 15.8 99910 82
2003-07-01 06:50:21 51°13.49 2°51.86 13.5 351 15.8 99910 82
2003-07-01 06:50:27 51°13.48 2°51.83 14.9 348 15.8 99910 82
2003-07-01 06:50:33 51°13.47 2°51.8 14.3 350 15.8 99900 82
2003-07-01 06:50:37 51°13.47 2°51.78 14 346 15.8 99900 82
2003-07-01 06:50:41 51°13.46 2°51.76 14.3 343 15.8 99910 82
2003-07-01 06:50:47 51°13.45 2°51.73 15 345 15.8 99910 82
2003-07-01 06:50:53 51°13.44 2°51.7 13.5 340 15.8 99910 82
2003-07-01 06:50:57 51°13.43 2°51.68 15.7 350 15.8 99910 82
2003-07-01 06:51:01 51°13.42 2°51.66 13.5 347 15.7 99900 81
2003-07-01 06:51:07 51°13.41 2°51.63 14.6 348 15.7 99900 81
2003-07-01 06:51:13 51°13.4 2°51.6 13.9 349 15.8 99890 81
2003-07-01 06:51:17 51°13.39 2°51.58 15.3 347 15.8 99890 81
2003-07-01 06:51:21 51°13.39 2°51.56 14.5 349 15.8 99880 81
2003-07-01 06:51:27 51°13.38 2°51.53 14.6 349 15.8 99880 81
2003-07-01 06:51:33 51°13.37 2°51.5 15.4 347 15.7 99890 81
2003-07-01 06:51:37 51°13.36 2°51.48 14.6 347 15.7 99890 81
2003-07-01 06:51:41 51°13.35 2°51.46 13.5 351 15.7 99890 81
2003-07-01 06:51:47 51°13.34 2°51.43 14.7 346 15.7 99890 81
2003-07-01 06:51:53 51°13.33 2°51.4 14 348 15.8 99900 82
2003-07-01 06:51:57 51°13.32 2°51.38 13.9 343 15.8 99900 82
2003-07-01 06:52:01 51°13.32 2°51.36 15.5 344 15.8 99880 81
2003-07-01 06:52:07 51°13.31 2°51.32 16 346 15.8 99880 81
2003-07-01 06:52:13 51°13.29 2°51.29 15 346 15.7 99900 81
2003-07-01 06:52:17 51°13.29 2°51.27 14.4 345 15.7 99900 81
2003-07-01 06:52:21 51°13.28 2°51.25 14.5 349 15.7 99890 81
2003-07-01 06:52:27 51°13.27 2°51.22 14.9 347 15.7 99890 81
2003-07-01 06:52:33 51°13.26 2°51.19 15.1 345 15.7 99880 81
2003-07-01 06:52:37 51°13.25 2°51.17 15 346 15.7 99880 81
2003-07-01 06:52:41 51°13.25 2°51.15 13.7 351 15.7 99880 81
2003-07-01 06:52:47 51°13.23 2°51.12 13.1 347 15.7 99880 81
2003-07-01 06:52:53 51°13.22 2°51.09 13.4 348 15.7 99890 81
2003-07-01 06:52:57 51°13.22 2°51.07 13 347 15.7 99890 81
2003-07-01 06:53:01 51°13.21 2°51.05 14.3 350 15.7 99890 81
2003-07-01 06:53:07 51°13.2 2°51.02 14.3 351 15.7 99890 81
2003-07-01 06:53:11 51°13.19 2°51 13.2 351 15.8 99890 82
2003-07-01 06:53:17 51°13.18 2°50.97 15.3 354 15.8 99890 82
2003-07-01 06:53:21 51°13.17 2°50.95 14.6 353 15.8 99900 81
2003-07-01 06:53:27 51°13.16 2°50.92 13.9 349 15.8 99900 81
2003-07-01 06:53:33 51°13.15 2°50.89 15.1 345 15.8 99900 81
2003-07-01 06:53:37 51°13.14 2°50.87 13.4 350 15.8 99900 81
2003-07-01 06:53:41 51°13.14 2°50.85 13.9 349 15.8 99900 81
2003-07-01 06:53:47 51°13.13 2°50.82 13.8 345 15.8 99900 81
2003-07-01 06:53:51 51°13.12 2°50.8 14.1 353 15.8 99890 81
2003-07-01 06:53:57 51°13.11 2°50.77 14.3 352 15.8 99890 81
2003-07-01 06:54:01 51°13.1 2°50.75 14.1 349 15.7 99890 81
2003-07-01 06:54:07 51°13.09 2°50.71 14.6 347 15.7 99890 81
2003-07-01 06:54:13 51°13.08 2°50.68 15 351 15.8 99900 81
2003-07-01 06:54:17 51°13.08 2°50.66 15.4 349 15.8 99900 81
2003-07-01 06:54:21 51°13.07 2°50.64 14.3 350 15.8 99900 82
2003-07-01 06:54:27 51°13.06 2°50.61 15.4 349 15.8 99900 82
2003-07-01 06:54:33 51°13.05 2°50.58 14.4 346 15.8 99890 82
2003-07-01 06:54:37 51°13.04 2°50.56 13.7 350 15.8 99890 82
2003-07-01 06:54:41 51°13.03 2°50.54 13.4 349 15.8 99890 81
2003-07-01 06:54:47 51°13.02 2°50.51 13.4 348 15.8 99890 81
2003-07-01 06:54:53 51°13.01 2°50.48 14 347 15.8 99890 81
2003-07-01 06:54:57 51°13 2°50.46 14.3 346 15.8 99890 81
2003-07-01 06:55:01 51°13 2°50.44 13.7 344 15.8 99890 82
2003-07-01 06:55:07 51°12.99 2°50.41 14.1 349 15.8 99890 82
2003-07-01 06:55:13 51°12.98 2°50.38 14.1 351 15.9 99890 82
2003-07-01 06:55:17 51°12.97 2°50.36 14.5 349 15.9 99890 82
2003-07-01 06:55:21 51°12.96 2°50.34 14.9 352 15.9 99900 82
2003-07-01 06:55:27 51°12.95 2°50.31 14.8 345 15.9 99900 82
2003-07-01 06:55:33 51°12.94 2°50.28 14 353 15.9 99880 82
2003-07-01 06:55:37 51°12.93 2°50.26 13.1 353 15.9 99880 82
2003-07-01 06:55:41 51°12.92 2°50.24 12.1 347 15.9 99900 82
2003-07-01 06:55:47 51°12.91 2°50.21 12.1 348 15.9 99900 82
2003-07-01 06:55:53 51°12.9 2°50.17 12.6 349 15.9 99900 82
2003-07-01 06:55:57 51°12.9 2°50.15 12.2 346 15.9 99900 82
2003-07-01 06:56:01 51°12.89 2°50.13 12.3 348 15.9 99900 81
2003-07-01 06:56:07 51°12.88 2°50.1 13.3 348 15.9 99900 81
2003-07-01 06:56:13 51°12.87 2°50.07 13.5 352 15.8 99900 81
2003-07-01 06:56:17 51°12.86 2°50.05 14 347 15.8 99900 81
2003-07-01 06:56:21 51°12.85 2°50.03 13 349 15.8 99900 81
2003-07-01 06:56:27 51°12.84 2°50 13.9 354 15.8 99900 81
2003-07-01 06:56:33 51°12.83 2°49.97 13.6 351 15.8 99900 81
2003-07-01 06:56:37 51°12.82 2°49.95 14.1 349 15.8 99900 81
2003-07-01 06:56:41 51°12.82 2°49.93 14.6 347 15.8 99890 81
2003-07-01 06:56:47 51°12.81 2°49.9 14.6 348 15.8 99890 81
2003-07-01 06:56:53 51°12.8 2°49.87 12.9 346 15.8 99900 81
2003-07-01 06:56:57 51°12.79 2°49.85 13.3 346 15.8 99900 81
2003-07-01 06:57:01 51°12.78 2°49.83 13 345 15.8 99900 81
2003-07-01 06:57:07 51°12.77 2°49.8 14 341 15.8 99900 81
2003-07-01 06:57:13 51°12.76 2°49.77 13.7 338 15.8 99900 81
2003-07-01 06:57:17 51°12.75 2°49.75 14.7 347 15.8 99900 81
2003-07-01 06:57:21 51°12.75 2°49.73 13.7 345 15.8 99900 81
2003-07-01 06:57:27 51°12.74 2°49.7 12.5 348 15.8 99900 81
2003-07-01 06:57:33 51°12.73 2°49.67 14.5 351 15.8 99890 81
2003-07-01 06:57:37 51°12.72 2°49.65 14.4 350 15.8 99890 81
2003-07-01 06:57:41 51°12.71 2°49.63 12.9 346 15.8 99880 81
2003-07-01 06:57:47 51°12.7 2°49.6 12.9 350 15.8 99880 81
2003-07-01 06:57:53 51°12.69 2°49.56 12.8 350 15.8 99900 82
2003-07-01 06:57:57 51°12.68 2°49.54 13.9 347 15.8 99900 82
2003-07-01 06:58:01 51°12.68 2°49.52 12.7 346 15.8 99890 81
2003-07-01 06:58:07 51°12.67 2°49.49 12.5 350 15.8 99890 81
2003-07-01 06:58:13 51°12.66 2°49.46 13.6 345 15.8 99900 81
2003-07-01 06:58:17 51°12.65 2°49.44 12.9 338 15.8 99900 81
2003-07-01 06:58:21 51°12.65 2°49.42 13.2 337 15.8 99900 81
2003-07-01 06:58:27 51°12.64 2°49.38 12 333 15.8 99900 81
2003-07-01 06:58:33 51°12.64 2°49.35 13.7 337 15.8 99890 82
2003-07-01 06:58:37 51°12.64 2°49.33 13.7 336 15.8 99890 82
2003-07-01 06:58:41 51°12.63 2°49.3 13.1 340 15.9 99900 82
2003-07-01 06:58:47 51°12.63 2°49.27 13.7 336 15.9 99900 82
2003-07-01 06:58:53 51°12.62 2°49.23 12.4 337 15.8 99890 81
2003-07-01 06:58:57 51°12.62 2°49.21 14 337 15.8 99890 81
2003-07-01 06:59:01 51°12.62 2°49.19 13.8 337 15.8 99890 81
2003-07-01 06:59:07 51°12.61 2°49.15 13.8 335 15.8 99890 81
2003-07-01 06:59:13 51°12.61 2°49.12 12.7 334 15.8 99900 81
2003-07-01 06:59:17 51°12.61 2°49.1 12.3 335 15.8 99900 81
2003-07-01 06:59:21 51°12.6 2°49.07 11.7 334 15.8 99890 81
2003-07-01 06:59:27 51°12.6 2°49.04 12.4 334 15.8 99890 81
2003-07-01 06:59:33 51°12.59 2°49.01 12.2 336 15.8 99880 81
2003-07-01 06:59:37 51°12.59 2°48.98 11.8 334 15.8 99880 81
2003-07-01 06:59:41 51°12.59 2°48.96 12.1 337 15.8 99890 81
2003-07-01 06:59:47 51°12.58 2°48.93 10.9 334 15.8 99890 81
2003-07-01 06:59:53 51°12.58 2°48.89 12.8 337 15.9 99890 81
2003-07-01 06:59:57 51°12.57 2°48.87 12.7 337 15.9 99890 81
2003-07-01 07:00:01 51°12.57 2°48.85 13 334 15.9 99900 81
2003-07-01 07:00:07 51°12.56 2°48.81 14 335 15.9 99900 81
2003-07-01 07:00:13 51°12.56 2°48.78 13.9 338 15.9 99890 81
2003-07-01 07:00:17 51°12.55 2°48.76 14.2 342 15.9 99890 81
2003-07-01 07:00:21 51°12.55 2°48.73 14.8 346 15.9 99900 81
2003-07-01 07:00:27 51°12.54 2°48.7 14 346 15.9 99900 81
2003-07-01 07:00:33 51°12.53 2°48.67 14.9 345 15.9 99900 81
2003-07-01 07:00:37 51°12.53 2°48.65 15.4 342 15.9 99900 81
2003-07-01 07:00:41 51°12.52 2°48.63 14.7 348 15.9 99890 81
2003-07-01 07:00:47 51°12.51 2°48.6 14.3 347 15.9 99890 81
2003-07-01 07:00:53 51°12.5 2°48.56 13.7 350 15.9 99890 81
2003-07-01 07:00:57 51°12.49 2°48.54 13.2 350 15.9 99890 81
2003-07-01 07:01:01 51°12.48 2°48.52 13.7 345 15.9 99880 81
2003-07-01 07:01:07 51°12.47 2°48.49 12.8 351 15.9 99880 81
2003-07-01 07:01:13 51°12.46 2°48.46 12.8 350 15.9 99880 81
2003-07-01 07:01:17 51°12.45 2°48.44 13.4 353 15.9 99880 81
2003-07-01 07:01:21 51°12.45 2°48.42 13 348 15.9 99900 81
2003-07-01 07:01:27 51°12.44 2°48.39 14.1   15.9 99900 81
2003-07-01 07:01:33 51°12.42 2°48.36 15.1 349 15.9 99900 81
2003-07-01 07:01:37 51°12.42 2°48.34 14.5 351 15.9 99900 81
2003-07-01 07:01:41 51°12.41 2°48.32 14.6 351 15.9 99900 81
2003-07-01 07:01:47 51°12.4 2°48.29 13.7 353 15.9 99900 81
2003-07-01 07:01:53 51°12.39 2°48.26 14.1 352 15.9 99910 81
2003-07-01 07:01:57 51°12.38 2°48.24 14.6 348 15.9 99910 81
2003-07-01 07:02:01 51°12.37 2°48.22 15.3 351 15.9 99900 81
2003-07-01 07:02:07 51°12.36 2°48.19 14.2 354 15.9 99900 81
2003-07-01 07:02:13 51°12.34 2°48.15 12.8 349 15.9 99900 81
2003-07-01 07:02:17 51°12.34 2°48.13 13.4 347 15.9 99900 81
2003-07-01 07:02:21 51°12.33 2°48.11 13.2 356 15.9 99890 81
2003-07-01 07:02:27 51°12.31 2°48.08 13.3 349 15.9 99890 81
2003-07-01 07:02:33 51°12.3 2°48.05 13.7 355 15.9 99890 81
2003-07-01 07:02:37 51°12.29 2°48.02 14.5 355 15.9 99890 81
2003-07-01 07:02:41 51°12.28 2°48 15.3 353 15.9 99900 81
2003-07-01 07:02:47 51°12.27 2°47.97 15.6 352 15.9 99900 81
2003-07-01 07:02:53 51°12.26 2°47.93 15.9 347 15.9 99910 81
2003-07-01 07:02:57 51°12.25 2°47.91 15.7 348 15.9 99910 81
2003-07-01 07:03:01 51°12.24 2°47.89 15.8 347 15.9 99910 81
2003-07-01 07:03:07 51°12.23 2°47.86 14.1 352 15.9 99910 81
2003-07-01 07:03:13 51°12.21 2°47.82 15 349 15.9 99890 81
2003-07-01 07:03:17 51°12.21 2°47.8 16.3 353 15.9 99890 81
2003-07-01 07:03:21 51°12.2 2°47.78 15.9 350 15.9 99900 81
2003-07-01 07:03:27 51°12.18 2°47.74 15.8 351 15.9 99900 81
2003-07-01 07:03:33 51°12.17 2°47.71 15.4 350 15.9 99880 81
2003-07-01 07:03:37 51°12.16 2°47.69 14.2 347 15.9 99880 81
2003-07-01 07:03:41 51°12.16 2°47.66 14.2 350 15.9 99890 81
2003-07-01 07:03:47 51°12.14 2°47.63 15.8 353 15.9 99890 81
2003-07-01 07:03:53 51°12.13 2°47.6 14 353 15.9 99890 81
2003-07-01 07:03:57 51°12.12 2°47.57 15.8 348 15.9 99890 81
2003-07-01 07:04:01 51°12.11 2°47.55 15.1 354 15.9 99890 81
2003-07-01 07:04:07 51°12.1 2°47.52 15 354 15.9 99890 81
2003-07-01 07:04:13 51°12.09 2°47.48 13.4 350 15.9 99880 81
2003-07-01 07:04:17 51°12.08 2°47.46 14.2 350 15.9 99880 81
2003-07-01 07:04:21 51°12.07 2°47.44 14.3 350 15.9 99900 82
2003-07-01 07:04:27 51°12.06 2°47.4 15.4 346 15.9 99900 82
2003-07-01 07:04:33 51°12.05 2°47.37 13.8 351 15.9 99900 81
2003-07-01 07:04:37 51°12.04 2°47.35 15.1 353 15.9 99900 81
2003-07-01 07:04:41 51°12.03 2°47.32 15 353 15.9 99900 81
2003-07-01 07:04:47 51°12.02 2°47.29 15 353 15.9 99900 81
2003-07-01 07:04:53 51°12.01 2°47.26 14.4 348 15.9 99890 81
2003-07-01 07:04:57 51°12 2°47.23 14.2 347 15.9 99890 81
2003-07-01 07:05:01 51°11.99 2°47.21 14.3 349 15.9 99890 81
2003-07-01 07:05:07 51°11.98 2°47.18 13.2 351 15.9 99890 81
2003-07-01 07:05:13 51°11.96 2°47.14 14 349 15.9 99900 81
2003-07-01 07:05:17 51°11.96 2°47.12 14.3 352 15.9 99900 81
2003-07-01 07:05:21 51°11.95 2°47.1 14.9 350 15.9 99890 81
2003-07-01 07:05:27 51°11.93 2°47.06 13.5 352 15.9 99890 81
2003-07-01 07:05:31 51°11.93 2°47.04 13.3 352 15.9 99890 81
2003-07-01 07:05:37 51°11.91 2°47.01 12.6 353 15.9 99890 81
2003-07-01 07:05:41 51°11.91 2°46.98 14 356 15.9 99890 81
2003-07-01 07:05:47 51°11.89 2°46.95 14.4 357 15.9 99890 81
2003-07-01 07:05:53 51°11.88 2°46.92 14.4 354 15.9 99890 81
2003-07-01 07:05:57 51°11.87 2°46.89 14.4 356 15.9 99890 81
2003-07-01 07:06:01 51°11.86 2°46.87 13.7 350 15.9 99900 81
2003-07-01 07:06:07 51°11.85 2°46.84 13.4 352 15.9 99900 81
2003-07-01 07:06:13 51°11.84 2°46.8 15.1 356 15.9 99900 81
2003-07-01 07:06:17 51°11.83 2°46.78 13.3 350 15.9 99900 81
2003-07-01 07:06:21 51°11.82 2°46.76 13.3 347 15.9 99890 81
2003-07-01 07:06:27 51°11.81 2°46.72 13.1 353 15.9 99890 81
2003-07-01 07:06:33 51°11.8 2°46.69 14 352 15.8 99900 81
2003-07-01 07:06:37 51°11.79 2°46.67 13.6 350 15.8 99900 81
2003-07-01 07:06:41 51°11.78 2°46.64 14.8 346 15.9 99890 81
2003-07-01 07:06:47 51°11.77 2°46.61 14.2 350 15.9 99890 81
2003-07-01 07:06:53 51°11.75 2°46.57 14.8 346 15.8 99900 81
2003-07-01 07:06:57 51°11.75 2°46.55 15 348 15.8 99900 81
2003-07-01 07:07:01 51°11.74 2°46.53 14.4 347 15.9 99900 81
2003-07-01 07:07:07 51°11.73 2°46.49 14.8 353 15.9 99900 81
2003-07-01 07:07:13 51°11.71 2°46.46 14.2 350 15.9 99900 82
2003-07-01 07:07:17 51°11.7 2°46.44 13.4 348 15.9 99900 82
2003-07-01 07:07:21 51°11.7 2°46.42 13.6 348 15.9 99890 81
2003-07-01 07:07:27 51°11.68 2°46.38 14.3 348 15.9 99890 81
2003-07-01 07:07:33 51°11.67 2°46.35 13.8 347 15.9 99890 82
2003-07-01 07:07:37 51°11.66 2°46.32 13.7 347 15.9 99890 82
2003-07-01 07:07:41 51°11.65 2°46.3 14.6 344 15.9 99900 82
2003-07-01 07:07:47 51°11.64 2°46.27 13.9 346 15.9 99900 82
2003-07-01 07:07:53 51°11.63 2°46.23 13.9 345 16 99890 82
2003-07-01 07:07:57 51°11.62 2°46.21 12.9 347 16 99890 82
2003-07-01 07:08:01 51°11.61 2°46.19 13 349 16 99880 82
2003-07-01 07:08:07 51°11.6 2°46.15 12.4 349 16 99880 82
2003-07-01 07:08:13 51°11.59 2°46.12 13.3 347 16 99880 82
2003-07-01 07:08:17 51°11.58 2°46.1 13.2 353 16 99880 82
2003-07-01 07:08:21 51°11.57 2°46.08 12.7 349 15.9 99890 81
2003-07-01 07:08:27 51°11.56 2°46.04 12.6 354 15.9 99890 81
2003-07-01 07:08:33 51°11.55 2°46.01 13.6 354 16 99900 81
2003-07-01 07:08:37 51°11.54 2°45.98 13.4 2 16 99900 81
2003-07-01 07:08:41 51°11.53 2°45.96 14.1 356 16 99900 82
2003-07-01 07:08:47 51°11.52 2°45.93 14.9 359 16 99900 82
2003-07-01 07:08:53 51°11.5 2°45.89 13.5 356 16 99900 82
2003-07-01 07:08:57 51°11.5 2°45.87 13.6 355 16 99900 82
2003-07-01 07:09:01 51°11.49 2°45.85 13.9 351 16 99900 81
2003-07-01 07:09:07 51°11.47 2°45.81 13.2 350 16 99900 81
2003-07-01 07:09:13 51°11.46 2°45.78 12.8 353 16 99910 81
2003-07-01 07:09:17 51°11.45 2°45.76 13.7 350 16 99910 81
2003-07-01 07:09:21 51°11.45 2°45.73 13.2 347 15.9 99900 81
2003-07-01 07:09:27 51°11.43 2°45.7 14 350 15.9 99900 81
2003-07-01 07:09:31 51°11.43 2°45.68 14.3 350 15.9 99910 81
2003-07-01 07:09:37 51°11.41 2°45.64 12.8 357 15.9 99910 81
2003-07-01 07:09:41 51°11.4 2°45.62 13.8 349 15.9 99910 81
2003-07-01 07:09:47 51°11.39 2°45.59 13.5 349 15.9 99910 81
2003-07-01 07:09:53 51°11.38 2°45.55 13.2 351 15.9 99900 81
2003-07-01 07:09:57 51°11.37 2°45.53 13.9 349 15.9 99900 81
2003-07-01 07:10:01 51°11.36 2°45.51 12.3 351 16 99900 81
2003-07-01 07:10:07 51°11.35 2°45.47 12.4 352 16 99900 81
2003-07-01 07:10:13 51°11.34 2°45.44 13.1 352 16 99900 81
2003-07-01 07:10:17 51°11.33 2°45.42 12.2 347 16 99900 81
2003-07-01 07:10:21 51°11.32 2°45.4 12.8 346 16 99900 81
2003-07-01 07:10:27 51°11.31 2°45.36 13.4 350 16 99900 81
2003-07-01 07:10:33 51°11.3 2°45.33 14.6 351 16 99900 81
2003-07-01 07:10:37 51°11.29 2°45.3 12.8 355 16 99900 81
2003-07-01 07:10:41 51°11.28 2°45.28 13.6 355 16 99910 82
2003-07-01 07:10:47 51°11.27 2°45.25 13.9 350 16 99910 82
2003-07-01 07:10:53 51°11.26 2°45.21 14.5 351 16 99900 81
2003-07-01 07:10:57 51°11.25 2°45.19 14.2 352 16 99900 81
2003-07-01 07:11:01 51°11.24 2°45.17 13.4 350 16 99900 81
2003-07-01 07:11:07 51°11.23 2°45.14 12.6 348 16 99900 81
2003-07-01 07:11:13 51°11.21 2°45.1 13.5 347 16 99900 81
2003-07-01 07:11:17 51°11.21 2°45.08 13.6 352 16 99900 81
2003-07-01 07:11:21 51°11.2 2°45.06 12.2 343 16 99900 81
2003-07-01 07:11:27 51°11.19 2°45.04 10.9 345 16 99900 81
2003-07-01 07:11:33 51°11.18 2°45.01 11.2 347 16 99900 80
2003-07-01 07:11:37 51°11.18 2°44.99 11.4 343 16 99900 80
2003-07-01 07:11:41 51°11.17 2°44.98 9.8 342 16 99920 80
2003-07-01 07:11:47 51°11.17 2°44.96 9.5 342 16 99920 80
2003-07-01 07:11:53 51°11.16 2°44.94 9.4 341 16 99910 80
2003-07-01 07:11:57 51°11.16 2°44.93 8.8 340 16 99910 80
2003-07-01 07:12:01 51°11.15 2°44.92 8.7 346 16 99910 81
2003-07-01 07:12:07 51°11.15 2°44.91 8.9 346 16 99910 81
2003-07-01 07:12:13 51°11.14 2°44.9 8.8 347 16 99920 81
2003-07-01 07:12:17 51°11.14 2°44.89 8.8 355 16 99920 81
2003-07-01 07:12:21 51°11.14 2°44.88 7.2 355 16 99920 81
2003-07-01 07:12:27 51°11.13 2°44.87 8.6 357 16 99920 81
2003-07-01 07:12:31 51°11.13 2°44.87 7.9 3 16 99920 81
2003-07-01 07:12:37 51°11.12 2°44.86 7.8 9 16 99920 81
2003-07-01 07:12:41 51°11.12 2°44.86 7.5 17 16 99940 81
2003-07-01 07:12:47 51°11.12 2°44.86 7.7 23 16 99940 81
2003-07-01 07:12:53 51°11.12 2°44.85 7.1 27 16 99940 81
2003-07-01 07:12:57 51°11.11 2°44.85 6.6 26 16 99940 81
2003-07-01 07:13:01 51°11.11 2°44.85 7.3 27 16.1 99950 81
2003-07-01 07:13:07 51°11.11 2°44.84 7.5 32 16.1 99950 81
2003-07-01 07:13:13 51°11.11 2°44.84 7.6 32 16.1 99950 81
2003-07-01 07:13:17 51°11.1 2°44.84 7.4 35 16.1 99950 81
2003-07-01 07:13:21 51°11.1 2°44.84 6.4 36 16 99950 80
2003-07-01 07:13:27 51°11.1 2°44.84 7 35 16 99950 80
2003-07-01 07:13:33 51°11.1 2°44.83 7.7 41 16 99940 80
2003-07-01 07:13:37 51°11.1 2°44.83 8 39 16 99940 80
2003-07-01 07:13:41 51°11.09 2°44.83 6.8 39 16 99950 80
2003-07-01 07:13:47 51°11.09 2°44.83 7.1 31 16 99950 80
2003-07-01 07:13:53 51°11.09 2°44.83 6.9 40 16 99950 80
2003-07-01 07:13:57 51°11.09 2°44.83 7.3 50 16 99950 80
2003-07-01 07:14:01 51°11.09 2°44.83 6.8 47 16 99940 80
2003-07-01 07:14:07 51°11.08 2°44.82 6.8 51 16 99940 80
2003-07-01 07:14:13 51°11.08 2°44.82 6.9 58 16 99940 80
2003-07-01 07:14:17 51°11.08 2°44.82 6.3 56 16 99940 80
2003-07-01 07:14:21 51°11.08 2°44.82 6.2 52 16.1 99950 81
2003-07-01 07:14:27 51°11.08 2°44.82 6.4   16.1 99950 81
2003-07-01 07:14:33 51°11.07 2°44.82 6.5 39 16 99940 81
2003-07-01 07:14:37 51°11.07 2°44.82 7.1 35 16 99940 81
2003-07-01 07:14:41 51°11.07 2°44.82 7 40 15.9 99950 80
2003-07-01 07:14:47 51°11.07 2°44.82 7.5 42 15.9 99950 80
2003-07-01 07:14:53 51°11.07 2°44.82 8.1 39 15.9 99950 81
2003-07-01 07:14:57 51°11.07 2°44.81 8 42 15.9 99950 81
2003-07-01 07:15:01 51°11.06 2°44.81 7.3 45 15.9 99950 81
2003-07-01 07:15:07 51°11.06 2°44.81 6.9 47 15.9 99950 81
2003-07-01 07:15:13 51°11.06 2°44.81 6.8 47 16 99950 81
2003-07-01 07:15:17 51°11.06 2°44.81 7.2 43 16 99950 81
2003-07-01 07:15:21 51°11.06 2°44.81 7.4 45 15.9 99940 81
2003-07-01 07:15:27 51°11.06 2°44.81 8.2 42 15.9 99940 81
2003-07-01 07:15:33 51°11.06 2°44.81 7.2 52 15.9 99940 81
2003-07-01 07:15:37 51°11.05 2°44.81 7.3 50 15.9 99940 81
2003-07-01 07:15:41 51°11.05 2°44.81 7.2 46 15.9 99940 81
2003-07-01 07:15:47 51°11.05 2°44.8 7.7 51 15.9 99940 81
2003-07-01 07:15:53 51°11.05 2°44.8 7.9 52 15.9 99940 81
2003-07-01 07:15:57 51°11.05 2°44.8 7.8 53 15.9 99940 81
2003-07-01 07:16:01 51°11.05 2°44.8 7.8 53 15.9 99940 81
2003-07-01 07:16:07 51°11.04 2°44.8 7.4 56 15.9 99940 81
2003-07-01 07:16:13 51°11.04 2°44.8 8.2 63 15.9 99940 81
2003-07-01 07:16:17 51°11.04 2°44.8 7.3 69 15.9 99940 81
2003-07-01 07:16:21 51°11.04 2°44.8 6.8 76 15.9 99940 81
2003-07-01 07:16:27 51°11.03 2°44.81 7.8 82 15.9 99940 81
2003-07-01 07:16:33 51°11.03 2°44.81 7.8 83 15.9 99930 81
2003-07-01 07:16:37 51°11.03 2°44.81 8.3 91 15.9 99930 81
2003-07-01 07:16:41 51°11.03 2°44.81 7.1 96 15.9 99930 81
2003-07-01 07:16:47 51°11.02 2°44.82 7.3 100 15.9 99930 81
2003-07-01 07:16:53 51°11.02 2°44.82 6.8 106 15.9 99930 81
2003-07-01 07:16:57 51°11.02 2°44.82 6 110 15.9 99930 81
2003-07-01 07:17:01 51°11.02 2°44.83 6.2 119 15.9 99940 81
2003-07-01 07:17:07 51°11.02 2°44.83 5.8 126 15.9 99940 81
2003-07-01 07:17:13 51°11.02 2°44.84 4.7 129 15.9 99940 81
2003-07-01 07:17:17 51°11.02 2°44.84 4.1 131 15.9 99940 81
2003-07-01 07:17:21 51°11.02 2°44.85 3.5 143 15.8 99940 81
2003-07-01 07:17:27 51°11.02 2°44.85 4.2 137 15.8 99940 81
2003-07-01 07:17:33 51°11.02 2°44.86 3.4 141 15.9 99950 81
2003-07-01 07:17:37 51°11.02 2°44.86 3.7 42 15.9 99950 81
2003-07-01 07:17:41 51°11.02 2°44.86 2.9 182 15.9 99950 81
2003-07-01 07:17:47 51°11.02 2°44.87 5.1 166 15.9 99950 81
2003-07-01 07:17:53 51°11.03 2°44.87 4.9 164 15.9 99950 82
2003-07-01 07:17:57 51°11.03 2°44.88 5 171 15.9 99950 82
2003-07-01 07:18:01 51°11.03 2°44.88 4.2 174 16 99950 82
2003-07-01 07:18:07 51°11.04 2°44.88 3.3 181 16 99950 82
2003-07-01 07:18:13 51°11.04 2°44.88 2.7 190 16 99950 82
2003-07-01 07:18:17 51°11.04 2°44.89 2.6 188 16 99950 82
2003-07-01 07:18:21 51°11.05 2°44.89 4.5 169 16 99950 82
2003-07-01 07:18:27 51°11.05 2°44.89 4.3 180 16 99950 82
2003-07-01 07:18:33 51°11.06 2°44.89 3.2 182 16 99950 82
2003-07-01 07:18:37 51°11.06 2°44.9 3 209 16 99950 82
2003-07-01 07:18:41 51°11.06 2°44.9 3.6 183 16.1 99960 82
2003-07-01 07:18:47 51°11.07 2°44.9 2.4 201 16.1 99960 82
2003-07-01 07:18:53 51°11.07 2°44.9 2.4 189 16.1 99950 82
2003-07-01 07:18:57 51°11.08 2°44.91 2.7 195 16.1 99950 82
2003-07-01 07:19:01 51°11.08 2°44.91 2 193 16.1 99950 82
2003-07-01 07:19:07 51°11.09 2°44.91 3.3 200 16.1 99950 82
2003-07-01 07:19:13 51°11.09 2°44.92 4.1 199 16.2 99950 82
2003-07-01 07:19:17 51°11.1 2°44.92 4.1 201 16.2 99950 82
2003-07-01 07:19:21 51°11.1 2°44.92 2.6 175 16.2 99960 82
2003-07-01 07:19:27 51°11.11 2°44.92 3.1 176 16.2 99960 82
2003-07-01 07:19:33 51°11.12 2°44.93 2.6 201 16.2 99950 82
2003-07-01 07:19:37 51°11.12 2°44.93 3.6 170 16.2 99950 82
2003-07-01 07:19:41 51°11.12 2°44.93 4.8 164 16.2 99960 82
2003-07-01 07:19:47 51°11.13 2°44.94 4.8 161 16.2 99960 82
2003-07-01 07:19:53 51°11.14 2°44.94 5.5 157 16.3 99950 82
2003-07-01 07:19:57 51°11.14 2°44.94 5.5 154 16.3 99950 82
2003-07-01 07:20:01 51°11.14 2°44.95 5.7 160 16.3 99950 81
2003-07-01 07:20:07 51°11.15 2°44.95 5.4 156 16.3 99950 81
2003-07-01 07:20:13 51°11.15 2°44.96 4.7 155 16.3 99950 81
2003-07-01 07:20:17 51°11.16 2°44.96 4.7 157 16.3 99950 81
2003-07-01 07:20:21 51°11.16 2°44.97 5.1 153 16.2 99950 80
2003-07-01 07:20:27 51°11.16 2°44.97 5.4 154 16.2 99950 80
2003-07-01 07:20:33 51°11.17 2°44.98 5.4 150 16.2 99940 80
2003-07-01 07:20:37 51°11.17 2°44.98 4.9 152 16.2 99940 80
2003-07-01 07:20:41 51°11.17 2°44.98 4.7 150 16.2 99950 80
2003-07-01 07:20:47 51°11.18 2°44.99 4.7 150 16.2 99950 80
2003-07-01 07:20:53 51°11.18 2°44.99 4.9 156 16.2 99950 80
2003-07-01 07:20:57 51°11.18 2°44.99 4.2 162 16.2 99950 80
2003-07-01 07:21:01 51°11.18 2°45 4.2 158 16.1 99950 80
2003-07-01 07:21:07 51°11.19 2°45 4 157 16.1 99950 80
2003-07-01 07:21:13 51°11.19 2°45.01 4.8 152 16.1 99950 80
2003-07-01 07:21:17 51°11.19 2°45.01 4.3 159 16.1 99950 80
2003-07-01 07:21:21 51°11.2 2°45.01 4.5 160 16.1 99950 80
2003-07-01 07:21:27 51°11.2 2°45.01 4.2   16.1 99950 80
2003-07-01 07:21:33 51°11.2 2°45.02 5.4 168 16.1 99950 80
2003-07-01 07:21:37 51°11.2 2°45.02 6.2 177 16.1 99950 80
2003-07-01 07:21:41 51°11.21 2°45.02 5.1 179 16.1 99950 81
2003-07-01 07:21:47 51°11.21 2°45.02 4.9 177 16.1 99950 81
2003-07-01 07:21:53 51°11.21 2°45.03 5 168 16.2 99950 81
2003-07-01 07:21:57 51°11.21 2°45.03 4.9 179 16.2 99950 81
2003-07-01 07:22:01 51°11.21 2°45.03 5.1 171 16.2 99950 80
2003-07-01 07:22:07 51°11.22 2°45.03 5.3 180 16.2 99950 80
2003-07-01 07:22:13 51°11.22 2°45.04 3.5 184 16.2 99950 80
2003-07-01 07:22:17 51°11.22 2°45.04 3.6 183 16.2 99950 80
2003-07-01 07:22:21 51°11.22 2°45.04 4.5 164 16.2 99950 80
2003-07-01 07:22:27 51°11.23 2°45.04 5.1 167 16.2 99950 80
2003-07-01 07:22:33 51°11.23 2°45.04 5.2 166 16.1 99950 80
2003-07-01 07:22:37 51°11.23 2°45.04 5 168 16.1 99950 80
2003-07-01 07:22:41 51°11.23 2°45.05 4.8 169 16.2 99950 80
2003-07-01 07:22:47 51°11.23 2°45.05 4.5 169 16.2 99950 80
2003-07-01 07:22:53 51°11.24 2°45.05 5.3 176 16.2 99950 81
2003-07-01 07:22:57 51°11.24 2°45.05 5.9 175 16.2 99950 81
2003-07-01 07:23:01 51°11.24 2°45.05 5.7 170 16.2 99950 81
2003-07-01 07:23:07 51°11.24 2°45.05 5.5 171 16.2 99950 81
2003-07-01 07:23:13 51°11.24 2°45.05 5.1 171 16.2 99950 80
2003-07-01 07:23:17 51°11.24 2°45.05 5.6 168 16.2 99950 80
2003-07-01 07:23:21 51°11.25 2°45.06 5.7 174 16.2 99950 80
2003-07-01 07:23:27 51°11.25 2°45.06 5.2 171 16.2 99950 80
2003-07-01 07:23:33 51°11.25 2°45.06 5.2 167 16.2 99950 80
2003-07-01 07:23:37 51°11.25 2°45.06 5.4 162 16.2 99950 80
2003-07-01 07:23:41 51°11.25 2°45.06 4.7 154 16.1 99950 79
2003-07-01 07:23:47 51°11.25 2°45.06 5 152 16.1 99950 79
2003-07-01 07:23:53 51°11.26 2°45.07 4.6 147 16.1 99950 80
2003-07-01 07:23:57 51°11.26 2°45.07 4.9 148 16.1 99950 80
2003-07-01 07:24:01 51°11.26 2°45.07 5.8 147 16.1 99950 79
2003-07-01 07:24:07 51°11.26 2°45.08 5.2 142 16.1 99950 79
2003-07-01 07:24:13 51°11.26 2°45.08 3.3 137 16.1 99950 79
2003-07-01 07:24:17 51°11.26 2°45.08 5.7 136 16.1 99950 79
2003-07-01 07:24:21 51°11.26 2°45.08 5.3 228 16.1 99950 79
2003-07-01 07:24:27 51°11.26 2°45.09 6.2 125 16.1 99950 79
2003-07-01 07:24:33 51°11.26 2°45.09 5.7 122 16.1 99950 80
2003-07-01 07:24:37 51°11.26 2°45.09 5.8 114 16.1 99950 80
2003-07-01 07:24:41 51°11.26 2°45.1 4.8 125 16.1 99940 80
2003-07-01 07:24:47 51°11.26 2°45.1 5.3 113 16.1 99940 80
2003-07-01 07:24:53 51°11.25 2°45.1 5.8 110 16.1 99940 80
2003-07-01 07:24:57 51°11.25 2°45.11 6.3 91 16.1 99940 80
2003-07-01 07:25:01 51°11.25 2°45.11 6.7 90 16.1 99950 80
2003-07-01 07:25:07 51°11.25 2°45.11 7.4 88 16.1 99950 80
2003-07-01 07:25:13 51°11.25 2°45.11 6.5 83 16.1 99940 80
2003-07-01 07:25:17 51°11.24 2°45.12 7.2 84 16.1 99940 80
2003-07-01 07:25:21 51°11.24 2°45.12 6.5 81 16.1 99950 80
2003-07-01 07:25:27 51°11.24 2°45.12 5.7 77 16.1 99950 80
2003-07-01 07:25:33 51°11.24 2°45.12 6.5 71 16.1 99950 80
2003-07-01 07:25:37 51°11.23 2°45.12 6.4 75 16.1 99950 80
2003-07-01 07:25:41 51°11.23 2°45.12 6 71 16.2 99940 80
2003-07-01 07:25:47 51°11.23 2°45.13 6.6 69 16.2 99940 80
2003-07-01 07:25:53 51°11.22 2°45.13 7.4 65 16.2 99940 80
2003-07-01 07:25:57 51°11.22 2°45.13 7.5 60 16.2 99940 80
2003-07-01 07:26:01 51°11.22 2°45.13 7.1 66 16.1 99940 80
2003-07-01 07:26:07 51°11.22 2°45.13 7.4 65 16.1 99940 80
2003-07-01 07:26:13 51°11.21 2°45.13 7.6 59 16.1 99940 79
2003-07-01 07:26:17 51°11.21 2°45.13 8.2 53 16.1 99940 79
2003-07-01 07:26:21 51°11.21 2°45.13 7.5 56 16.1 99940 79
2003-07-01 07:26:27 51°11.2 2°45.13 8 55 16.1 99940 79
2003-07-01 07:26:33 51°11.2 2°45.12 7.8 55 16.1 99940 80
2003-07-01 07:26:37 51°11.2 2°45.12 7 47 16.1 99940 80
2003-07-01 07:26:41 51°11.19 2°45.12 6.2 33 16.1 99940 80
2003-07-01 07:26:47 51°11.19 2°45.12 6.6 35 16.1 99940 80
2003-07-01 07:26:53 51°11.18 2°45.12 6.6 31 16.1 99940 80
2003-07-01 07:26:57 51°11.18 2°45.11 6.1 28 16.1 99940 80
2003-07-01 07:27:01 51°11.18 2°45.11 7.4 32 16.2 99940 81
2003-07-01 07:27:07 51°11.17 2°45.11 8.2 29 16.2 99940 81
2003-07-01 07:27:13 51°11.17 2°45.1 7.4 15 16.2 99940 81
2003-07-01 07:27:17 51°11.17 2°45.1 6.7 14 16.2 99940 81
2003-07-01 07:27:21 51°11.16 2°45.1 7.7 9 16.2 99950 81
2003-07-01 07:27:27 51°11.16 2°45.09 7.8 16 16.2 99950 81
2003-07-01 07:27:33 51°11.16 2°45.09 7.1 9 16.2 99950 81
2003-07-01 07:27:37 51°11.15 2°45.09 7.7 10 16.2 99950 81
2003-07-01 07:27:41 51°11.15 2°45.08 7.7 7 16.2 99950 81
2003-07-01 07:27:47 51°11.15 2°45.08 8.1 3 16.2 99950 81
2003-07-01 07:27:53 51°11.14 2°45.07 7.6 360 16.2 99940 81
2003-07-01 07:27:57 51°11.14 2°45.06 7.6 359 16.2 99940 81
2003-07-01 07:28:01 51°11.14 2°45.06 8 356 16.2 99940 81
2003-07-01 07:28:07 51°11.14 2°45.05 7.7 352 16.2 99940 81
2003-07-01 07:28:13 51°11.13 2°45.05 7.3 343 16.2 99950 80
2003-07-01 07:28:17 51°11.13 2°45.04 6.5 339 16.2 99950 80
2003-07-01 07:28:21 51°11.13 2°45.03 6.5 333 16.1 99940 80
2003-07-01 07:28:27 51°11.13 2°45.03 6.7 333 16.1 99940 80
2003-07-01 07:28:33 51°11.13 2°45.02 6.3 331 16.1 99940 80
2003-07-01 07:28:37 51°11.13 2°45.01 5.8 336 16.1 99940 80
2003-07-01 07:28:41 51°11.12 2°45.01 6.6 335 16.1 99940 80
2003-07-01 07:28:47 51°11.12 2°45 6.5 325 16.1 99940 80
2003-07-01 07:28:53 51°11.12 2°44.99 5.6 40 16.1 99940 80
2003-07-01 07:28:57 51°11.12 2°44.98 5.5 42 16.1 99940 80
2003-07-01 07:29:01 51°11.12 2°44.98 6.3 309 16.1 99950 80
2003-07-01 07:29:07 51°11.12 2°44.97 6 303 16.1 99950 80
2003-07-01 07:29:13 51°11.12 2°44.96 6.2 315 16.1 99940 80
2003-07-01 07:29:17 51°11.12 2°44.95 5.7 313 16.1 99940 80
2003-07-01 07:29:21 51°11.12 2°44.95 5.4 310 16.1 99950 80
2003-07-01 07:29:27 51°11.12 2°44.94 6 310 16.1 99950 80
2003-07-01 07:29:33 51°11.12 2°44.93 5.6 304 16.1 99950 80
2003-07-01 07:29:37 51°11.12 2°44.92 5.7 306 16.1 99950 80
2003-07-01 07:29:41 51°11.12 2°44.92 6.2 308 16.2 99950 80
2003-07-01 07:29:47 51°11.12 2°44.91 7.9 303 16.2 99950 80
2003-07-01 07:29:53 51°11.13 2°44.9 7.9 303 16.2 99950 80
2003-07-01 07:29:57 51°11.13 2°44.89 7.8 303 16.2 99950 80
2003-07-01 07:30:01 51°11.13 2°44.89 7 307 16.2 99950 81
2003-07-01 07:30:07 51°11.13 2°44.88 6.9 299 16.2 99950 81
2003-07-01 07:30:13 51°11.13 2°44.87 7.7 302 16.2 99950 81
2003-07-01 07:30:17 51°11.13 2°44.86 7.4 296 16.2 99950 81
2003-07-01 07:30:21 51°11.13 2°44.86 7.3 299 16.2 99950 81
2003-07-01 07:30:27 51°11.13 2°44.85 6.5 298 16.2 99950 81
2003-07-01 07:30:33 51°11.14 2°44.84 6.2 306 16.2 99950 80
2003-07-01 07:30:37 51°11.14 2°44.83 7.1 309 16.2 99950 80
2003-07-01 07:30:41 51°11.14 2°44.82 6.8 226 16.2 99950 80
2003-07-01 07:30:47 51°11.14 2°44.81 6.8 314 16.2 99950 80
2003-07-01 07:30:53 51°11.14 2°44.8 6.8 314 16.2 99950 80
2003-07-01 07:30:57 51°11.14 2°44.79 7.5 228 16.2 99950 80
2003-07-01 07:31:01 51°11.14 2°44.79 6.2 312 16.2 99950 80
2003-07-01 07:31:07 51°11.14 2°44.77 7.1 312 16.2 99950 80
2003-07-01 07:31:13 51°11.14 2°44.76 7.1 309 16.2 99950 80
2003-07-01 07:31:17 51°11.14 2°44.76 7.6 307 16.2 99950 80
2003-07-01 07:31:21 51°11.14 2°44.75 7.7 310 16.1 99950 80
2003-07-01 07:31:27 51°11.15 2°44.74 7.4 312 16.1 99950 80
2003-07-01 07:31:33 51°11.15 2°44.73 7.6 312 16.2 99950 80
2003-07-01 07:31:37 51°11.15 2°44.72 7.4 312 16.2 99950 80
2003-07-01 07:31:41 51°11.15 2°44.71 7.6 308 16.2 99950 80
2003-07-01 07:31:47 51°11.15 2°44.7 7.4 310 16.2 99950 80
2003-07-01 07:31:53 51°11.15 2°44.69 7 308 16.2 99950 80
2003-07-01 07:31:57 51°11.15 2°44.68 7.8 312 16.2 99950 80
2003-07-01 07:32:01 51°11.15 2°44.68 7.7 313 16.2 99940 80
2003-07-01 07:32:07 51°11.15 2°44.66 7.7 318 16.2 99940 80
2003-07-01 07:32:13 51°11.15 2°44.65 7.9 43 16.2 99950 80
2003-07-01 07:32:17 51°11.15 2°44.65 7.2 310 16.2 99950 80
2003-07-01 07:32:21 51°11.15 2°44.64 9.7 323 16.2 99940 80
2003-07-01 07:32:27 51°11.15 2°44.63 8.9 316 16.2 99940 80
2003-07-01 07:32:33 51°11.15 2°44.62 9 228 16.3 99940 81
2003-07-01 07:32:37 51°11.15 2°44.61 8.4 42 16.3 99940 81
2003-07-01 07:32:41 51°11.15 2°44.6 7.7 316 16.3 99940 81
2003-07-01 07:32:47 51°11.15 2°44.59 8.4 320 16.3 99940 81
2003-07-01 07:32:53 51°11.15 2°44.58 8.5 322 16.3 99930 80
2003-07-01 07:32:57 51°11.15 2°44.57 8.4 324 16.3 99930 80
2003-07-01 07:33:01 51°11.15 2°44.56 8.2 327 16.3 99940 80
2003-07-01 07:33:07 51°11.14 2°44.55 7.7 323 16.3 99940 80
2003-07-01 07:33:13 51°11.14 2°44.54 7.5 324 16.3 99940 80
2003-07-01 07:33:17 51°11.14 2°44.54 7.4 325 16.3 99940 80
2003-07-01 07:33:21 51°11.14 2°44.53 7 325 16.2 99940 80
2003-07-01 07:33:27 51°11.14 2°44.52 8.6 327 16.2 99940 80
2003-07-01 07:33:33 51°11.14 2°44.51 8.3 329 16.2 99930 80
2003-07-01 07:33:37 51°11.14 2°44.5 9.1 335 16.2 99930 80
2003-07-01 07:33:41 51°11.13 2°44.49 9.9 334 16.3 99940 80
2003-07-01 07:33:47 51°11.13 2°44.48 8.6 334 16.3 99940 80
2003-07-01 07:33:53 51°11.13 2°44.47 8.8 329 16.3 99930 80
2003-07-01 07:33:57 51°11.13 2°44.46 7.6 328 16.3 99930 80
2003-07-01 07:34:01 51°11.13 2°44.46 8.1 327 16.3 99930 80
2003-07-01 07:34:07 51°11.13 2°44.45 9 326 16.3 99930 80
2003-07-01 07:34:13 51°11.12 2°44.44 8.6 326 16.3 99930 80
2003-07-01 07:34:17 51°11.12 2°44.43 8.6 328 16.3 99930 80
2003-07-01 07:34:21 51°11.12 2°44.42 7.4 329 16.3 99930 79
2003-07-01 07:34:27 51°11.12 2°44.41 7.7 330 16.3 99930 79
2003-07-01 07:34:33 51°11.12 2°44.4 7.4 337 16.2 99930 79
2003-07-01 07:34:37 51°11.11 2°44.39 7 329 16.2 99930 79
2003-07-01 07:34:41 51°11.11 2°44.39 7.9 332 16.2 99930 79
2003-07-01 07:34:47 51°11.11 2°44.38 8.2 331 16.2 99930 79
2003-07-01 07:34:53 51°11.11 2°44.37 8 334 16.3 99930 79
2003-07-01 07:34:57 51°11.1 2°44.36 7.5 332 16.3 99930 79
2003-07-01 07:35:01 51°11.1 2°44.35 8.3 337 16.3 99940 80
2003-07-01 07:35:07 51°11.1 2°44.34 7.5 334 16.3 99940 80
2003-07-01 07:35:13 51°11.1 2°44.33 9.2 335 16.3 99930 80
2003-07-01 07:35:17 51°11.1 2°44.32 9.8 329 16.3 99930 80
2003-07-01 07:35:21 51°11.09 2°44.32 9.5 334 16.3 99930 79
2003-07-01 07:35:27 51°11.09 2°44.31 8.7 333 16.3 99930 79
2003-07-01 07:35:33 51°11.09 2°44.3 9.6 329 16.3 99930 79
2003-07-01 07:35:37 51°11.09 2°44.29 8.8 325 16.3 99930 79
2003-07-01 07:35:41 51°11.09 2°44.28 7.8 326 16.3 99930 80
2003-07-01 07:35:47 51°11.09 2°44.27 7.8 321 16.3 99930 80
2003-07-01 07:35:53 51°11.08 2°44.27 7.9 315 16.3 99920 80
2003-07-01 07:35:57 51°11.08 2°44.26 7.7 316 16.3 99920 80
2003-07-01 07:36:01 51°11.08 2°44.26 8 311 16.3 99930 79
2003-07-01 07:36:07 51°11.08 2°44.25 9.1 317 16.3 99930 79
2003-07-01 07:36:13 51°11.08 2°44.24 8.6 41 16.3 99930 79
2003-07-01 07:36:17 51°11.08 2°44.24 8.6 227 16.3 99930 79
2003-07-01 07:36:21 51°11.08 2°44.23 7.6 44 16.3 99940 79
2003-07-01 07:36:27 51°11.08 2°44.22 7 317 16.3 99940 79
2003-07-01 07:36:33 51°11.08 2°44.22 7.8 319 16.3 99940 79
2003-07-01 07:36:37 51°11.08 2°44.22 7.3 315 16.3 99940 79
2003-07-01 07:36:41 51°11.08 2°44.21 7.8 43 16.3 99940 79
2003-07-01 07:36:47 51°11.08 2°44.21 8.3 316 16.3 99940 79
2003-07-01 07:36:53 51°11.08 2°44.2 8.1 318 16.3 99940 79
2003-07-01 07:36:57 51°11.07 2°44.2 7.1 317 16.3 99940 79
2003-07-01 07:37:01 51°11.07 2°44.2 6.6 316 16.3 99940 79
2003-07-01 07:37:07 51°11.07 2°44.19 7.2 321 16.3 99940 79
2003-07-01 07:37:13 51°11.07 2°44.19 6.9 317 16.3 99930 79
2003-07-01 07:37:17 51°11.07 2°44.19 6.1 43 16.3 99930 79
2003-07-01 07:37:21 51°11.07 2°44.18 6.1 226 16.3 99930 79
2003-07-01 07:37:27 51°11.07 2°44.18 6.2 42 16.3 99930 79
2003-07-01 07:37:33 51°11.07 2°44.18 6.3 311 16.3 99940 79
2003-07-01 07:37:37 51°11.07 2°44.17 5.5 226 16.3 99940 79
2003-07-01 07:37:41 51°11.07 2°44.17 6 316 16.3 99940 79
2003-07-01 07:37:47 51°11.07 2°44.17 7 312 16.3 99940 79
2003-07-01 07:37:53 51°11.07 2°44.16 6.8 42 16.3 99940 79
2003-07-01 07:37:57 51°11.07 2°44.16 7.2 227 16.3 99940 79
2003-07-01 07:38:01 51°11.07 2°44.16 7.4 42 16.3 99940 79
2003-07-01 07:38:07 51°11.07 2°44.16 7.2 228 16.3 99940 79
2003-07-01 07:38:13 51°11.07 2°44.15 6.6 306 16.3 99940 80
2003-07-01 07:38:17 51°11.07 2°44.15 7.1 304 16.3 99940 80
2003-07-01 07:38:21 51°11.07 2°44.15 6.5 302 16.4 99940 80
2003-07-01 07:38:27 51°11.07 2°44.14 7.2 306 16.4 99940 80
2003-07-01 07:38:31 51°11.07 2°44.14 7.4 296 16.4 99930 80
2003-07-01 07:38:37 51°11.07 2°44.14 6.7 298 16.4 99930 80
2003-07-01 07:38:41 51°11.07 2°44.14 6.2 302 16.4 99940 80
2003-07-01 07:38:47 51°11.07 2°44.13 6 302 16.4 99940 80
2003-07-01 07:38:53 51°11.07 2°44.13 6.4 304 16.4 99940 80
2003-07-01 07:38:57 51°11.07 2°44.13 5.9 308 16.4 99940 80
2003-07-01 07:39:01 51°11.07 2°44.12 6.2 314 16.4 99940 80
2003-07-01 07:39:07 51°11.07 2°44.12 5.9 314 16.4 99940 80
2003-07-01 07:39:13 51°11.07 2°44.12 6.3 303 16.4 99940 79
2003-07-01 07:39:17 51°11.07 2°44.11 6.4 306 16.4 99940 79
2003-07-01 07:39:21 51°11.07 2°44.11 6.6 311 16.4 99940 79
2003-07-01 07:39:27 51°11.07 2°44.11 7.7 299 16.4 99940 79
2003-07-01 07:39:33 51°11.07 2°44.1 7 296 16.4 99940 80
2003-07-01 07:39:37 51°11.07 2°44.1 7.2 298 16.4 99940 80
2003-07-01 07:39:41 51°11.07 2°44.1 6.1 308 16.4 99940 80
2003-07-01 07:39:47 51°11.07 2°44.09 6.8 301 16.4 99940 80
2003-07-01 07:39:53 51°11.07 2°44.09 6.5 305 16.4 99940 79
2003-07-01 07:39:57 51°11.07 2°44.09 6.7 304 16.4 99940 79
2003-07-01 07:40:01 51°11.07 2°44.08 7.1 317 16.4 99940 79
2003-07-01 07:40:07 51°11.07 2°44.08 6.7 314 16.4 99940 79
2003-07-01 07:40:13 51°11.07 2°44.07 7.5 310 16.4 99940 79
2003-07-01 07:40:17 51°11.07 2°44.07 8.2 312 16.4 99940 79
2003-07-01 07:40:21 51°11.07 2°44.07 8 43 16.4 99950 80
2003-07-01 07:40:27 51°11.06 2°44.06 6.5 320 16.4 99950 80
2003-07-01 07:40:33 51°11.06 2°44.06 6.5 331 16.4 99940 80
2003-07-01 07:40:37 51°11.06 2°44.05 6.1 341 16.4 99940 80
2003-07-01 07:40:41 51°11.06 2°44.05 6.8 351 16.4 99940 80
2003-07-01 07:40:47 51°11.06 2°44.04 7.5 351 16.4 99940 80
2003-07-01 07:40:53 51°11.06 2°44.03 7.4 354 16.4 99940 79
2003-07-01 07:40:57 51°11.06 2°44.03 6.6 1 16.4 99940 79
2003-07-01 07:41:01 51°11.05 2°44.02 6.7 351 16.4 99930 79
2003-07-01 07:41:07 51°11.05 2°44.02 6.5 355 16.4 99930 79
2003-07-01 07:41:13 51°11.05 2°44.01 6.4 354 16.4 99930 79
2003-07-01 07:41:17 51°11.05 2°44.01 6.2 351 16.4 99930 79
2003-07-01 07:41:21 51°11.04 2°44 7 354 16.4 99930 79
2003-07-01 07:41:27 51°11.04 2°44 7.6   16.4 99930 79
2003-07-01 07:41:33 51°11.04 2°43.99 7.3 356 16.4 99930 80
2003-07-01 07:41:37 51°11.04 2°43.99 7 2 16.4 99930 80
2003-07-01 07:41:41 51°11.03 2°43.99 8.3 5 16.4 99930 79
2003-07-01 07:41:47 51°11.03 2°43.98 7.1 15 16.4 99930 79
2003-07-01 07:41:53 51°11.03 2°43.98 7 19 16.5 99930 79
2003-07-01 07:41:57 51°11.03 2°43.98 6.9 15 16.5 99930 79
2003-07-01 07:42:01 51°11.03 2°43.97 7.5 20 16.5 99930 79
2003-07-01 07:42:07 51°11.02 2°43.97 6.6 20 16.5 99930 79
2003-07-01 07:42:13 51°11.02 2°43.97 7 20 16.4 99930 79
2003-07-01 07:42:17 51°11.02 2°43.96 6.5 16 16.4 99930 79
2003-07-01 07:42:21 51°11.02 2°43.96 6.9 22 16.4 99940 79
2003-07-01 07:42:27 51°11.02 2°43.96 6.7 33 16.4 99940 79
2003-07-01 07:42:33 51°11.01 2°43.96 6.9 21 16.4 99940 79
2003-07-01 07:42:37 51°11.01 2°43.95 6.4 20 16.4 99940 79
2003-07-01 07:42:41 51°11.01 2°43.95 6.8 26 16.5 99930 79
2003-07-01 07:42:47 51°11.01 2°43.95 6.8 24 16.5 99930 79
2003-07-01 07:42:53 51°11.01 2°43.95 7 29 16.4 99930 79
2003-07-01 07:42:57 51°11 2°43.94 6.7 28 16.4 99930 79
2003-07-01 07:43:01 51°11 2°43.94 6.4 29 16.5 99940 79
2003-07-01 07:43:07 51°11 2°43.94 7 25 16.5 99940 79
2003-07-01 07:43:13 51°11 2°43.94 6.4 27 16.4 99940 79